www.pogodaiklimat.ru

Погода и климат >> Архив погоды >> Пакистан >> Лахор


ПОГОДА в Лахоре

  • Прогноз погоды в Лахоре
  • Монитор погоды в Лахоре

АРХИВ ПОГОДЫ в Лахоре

Время (UTC), дата Ветер
(напр.,м/с)
 
Видим.   Явления Облачность Т
(С)
Тd
(С)
f
(%)
Тe
(С)
Тes
(С)
Комфортность P
(гПа)
Po
(гПа)
Тmin
(С)
Tmax
(С)
R
(мм)
R24
(мм)
S
(см)
12 16.09 штиль 0 4000 м дым 6/3 1200 м
[Sc Ac trans]
+35.0 +22.9 50 +45 +46 опасность
перегрева
999.9 976.6 +36.3
15 16.09 ЮВ 1 4000 м дым ясно +32.0 +25.0 67 +46 +46 опасность
перегрева
1000.2 1000.0
18 16.09 штиль 0 4000 м дым ясно +30.0 +24.3 72 +42 +42 опасность
перегрева
1002.5 978.7
21 16.09 штиль 0 4000 м дым ясно +29.0 +24.8 78 +41 +41 опасность
перегрева
1001.8 1000.0
00 17.09 штиль 0 4000 м дым ясно +27.5 +23.9 81 +38 +38 очень
душно
1002.1 978.2
03 17.09 штиль 0 4000 м дым ясно +28.5 +24.2 78 +40 +45 очень
душно
1004.4 980.4 +26.3
06 17.09 С 2 4000 м ясно +34.5 +23.1 52 +45 +60 опасность
перегрева
1040.0 981.2
09 17.09 С 1 4000 м дым 5/3 1260 м
[Sc Ac trans]
+35.0 +23.7 52 +46 +55 опасность
перегрева
1003.2 1000.0
12 17.09 штиль 0 4000 м дым 8/4 1200 м
[Sc Ac As]
+35.0 +23.7 52 +46 +47 опасность
перегрева
1001.9 978.1 +36.5
15 17.09 штиль 0 4000 м дым ясно +32.0 +25.0 67 +46 +46 опасность
перегрева
1002.9 979.0
18 17.09 штиль 0 4000 м дым ясно +31.0 +25.4 72 +45 +45 опасность
перегрева
1003.8 980.1
21 17.09 штиль 0 4000 м дым ясно +29.5 +25.3 78 +43 +43 опасность
перегрева
1003.7 1000.0
00 18.09 штиль 0 4000 м дым ясно +28.0 +25.2 85 +41 +41 опасность
перегрева
1004.7 980.7
03 18.09 штиль 0 4000 м дым ясно +29.0 +24.8 78 +41 +47 опасность
перегрева
1005.9 982.0 +27.1
06 18.09 СВ 1 4000 м дым 4/4 1260 м
[Sc]
+33.5 +24.4 59 +46 +57 опасность
перегрева
1008.3 984.8
09 18.09 С 2 4000 м мгла 6/5 300 м
[Sc Ac trans]
+35.0 +22.9 50 +45 +51 опасность
перегрева
1006.7 983.0
12 18.09 штиль 0 4000 м дым 6/4 1200 м
[Sc Ac As]
+34.0 +24.1 56 +46 +46 опасность
перегрева
1005.2 981.7 +36.1
15 18.09 штиль 0 4000 м дым ясно +32.0 +24.8 66 +45 +45 опасность
перегрева
1006.5 1000.0
18 18.09 В 2 4000 м дым ясно +30.0 +26.5 82 +46 +46 опасность
перегрева
1007.8 984.1
21 18.09 штиль 0 50 км дым ?/? +28.0 +25.2 85 +41 +41 опасность
перегрева
1008.6 984.3
00 19.09 В 2 4000 м дым ясно +27.5 +24.7 85 +39 +39 очень
душно
1008.6 984.6
03 19.09 В 1 4000 м дым 9/4 1200 м
[Sc Ac As]
+27.0 +24.1 84 +37 +38 очень
душно
1010.5 986.4 +26.3
06 19.09 ЮВ 3 4000 м дым 8/4 1260 м
[Sc Ac As]
+29.5 +24.5 75 +42 +46 опасность
перегрева
1011.5 987.6
09 19.09 СВ 1 4000 м дым 6/4 1260 м
[Sc Ac As]
+31.5 +24.4 66 +44 +51 опасность
перегрева
1009.2 1000.0
12 19.09 ЮВ 1 4000 м дым 6/4 1200 м
[Sc Ac As]
+31.0 +23.9 66 +43 +43 опасность
перегрева
1008.1 984.0 +32.2
15 19.09 ЮВ 1 4000 м дым 5/5 1200 м
[Sc]
+29.0 +24.8 78 +41 +41 опасность
перегрева
1009.0 1000.0
18 19.09 штиль 0 4000 м дым ясно +28.0 +23.7 77 +38 +38 очень
душно
1009.4 985.4
21 19.09 штиль 0 4000 м дым ясно +27.0 +24.1 84 +37 +37 очень
душно
1009.4 1000.0
00 20.09 штиль 0 4000 м дым ясно +26.0 +23.1 84 +35 +35 очень
душно
1009.4 985.2
03 20.09 штиль 0 4000 м дым 5/3 1200 м
[Sc Ac trans]
+27.0 +24.1 84 +37 +40 очень
душно
1010.2 986.1 +25.1
06 20.09 штиль 0 4000 м дым 6/5 300 м
[Sc Ac trans]
+30.5 +23.3 65 +41 +50 опасность
перегрева
1011.1 987.2
09 20.09 штиль 0 4000 м дым 8/5 1260 м
[Sc Ac As]
+32.5 +22.4 55 +42 +47 опасность
перегрева
1008.4 1000.0
12 20.09 С 3 4000 м дым {морось} 8/4 1200 м
[Sc Ac As]
+31.0 +23.9 66 +43 +43 опасность
перегрева
1006.7 983.0 +33.5 0.0
15 20.09 С 1 4000 м дым ясно +29.5 +24.5 75 +42 +42 опасность
перегрева
1007.4 1000.0
18 20.09 штиль 0 4000 м дым ясно +28.0 +23.7 77 +38 +38 очень
душно
1008.4 984.4
21 20.09 штиль 0 4000 м дым ясно +27.0 +23.4 81 +37 +37 очень
душно
1007.4 983.0
00 21.09 штиль 0 4000 м дым ясно +26.0 +23.1 84 +35 +35 очень
душно
1007.5 983.1
03 21.09 штиль 0 4000 м дым ясно +27.5 +22.4 74 +36 +41 очень
душно
1009.1 985.1 +26.1
06 21.09 штиль 0 4000 м дым ясно +32.0 +21.8 55 +41 +60 опасность
перегрева
1009.1 985.4
09 21.09 С 1 4000 м мгла 5/4 300 м
[Sc Ac trans]
+34.0 +21.6 48 +42 +49 опасность
перегрева
1006.8 1000.0
12 21.09 ЮЗ 3 4000 м дым 4/0
[Ac trans]
+33.0 +21.3 50 +41 +41 опасность
перегрева
1004.7 981.2 +34.5
15 21.09 штиль 0 4000 м дым ясно +30.0 +22.8 65 +40 +40 очень
душно
1005.4 1000.0
18 21.09 штиль 0 4000 м дым ясно +29.5 +23.0 68 +39 +39 очень
душно
1005.9 982.0
21 21.09 штиль 0 4000 м дым ясно +28.0 +23.7 77 +38 +38 очень
душно
1005.5 981.3
00 22.09 штиль 0 4000 м дым ясно +27.0 +23.4 81 +37 +37 очень
душно
1006.9 982.9
03 22.09 штиль 0 4000 м дым ясно +28.5 +23.5 74 +39 +44 очень
душно
1009.5 985.5 +26.3
06 22.09 штиль 0 4000 м дым ясно +32.5 +21.5 52 +40 +60 опасность
солнечного
удара
1009.5 985.8
09 22.09 штиль 0 4000 м мгла 4/4 1200 м
[Sc]
+34.5 +22.2 49 +43 +53 опасность
перегрева
1007.5 1000.0
12 22.09 штиль 0 4000 м дым 6/4 1200 м
[Sc Ac trans]
+33.0 +23.0 56 +43 +44 опасность
перегрева
1006.2 982.7 +35.0
15 22.09 ЮВ 1 4000 м дым 5/3 1200 м
[Sc Ac trans]
+30.0 +22.8 65 +40 +40 очень
душно
1008.0 1000.0
18 22.09 В 1 4000 м дым ясно +28.0 +22.9 74 +37 +37 очень
душно
1009.7 985.7
21 22.09 штиль 0 4000 м дым ясно +27.0 +23.4 81 +37 +37 очень
душно
1009.5 1000.0
00 23.09 штиль 0 4000 м дым ясно +26.5 +23.6 84 +36 +36 очень
душно
1011.3 987.2
03 23.09 штиль 0 4000 м дым 3/0
[Ac trans]
+27.5 +23.1 77 +37 +41 очень
душно
1012.9 988.9 +25.8
06 23.09 СВ 1 4000 м дым ясно +31.0 +22.3 60 +40 +57 опасность
солнечного
удара
1012.3 988.4
09 23.09 штиль 0 4000 м дым 4/4
[Sc]
+33.0 +21.3 50 +41 +50 опасность
перегрева
1009.7 1000.0

 

Местоположение метеостанции Лахор (Пакистан): широта 31.55 долгота 74.33 высота над уровнем моря 215 м.

В архиве по умолчанию представлена погода в Лахоре за последнюю неделю. Архивные данные за месяц целиком и за предыдущие месяцы, начиная с января 2011 года, Вы можете получить, выбрав интересующий диапазон дат из раскрывающегося списка и нажав кнопку "Ввод!".


*Определитесь, кто Вы:
робот инопланетянин человек

Внимание! Время в таблицах - всемирное. Для получения местного времени необходимо прибавить поправку, которая равна 5 ч.

Смотрите также архив погоды в соседних городах и на ближайших метеорологических станциях:

Погода в Лахор аэропорту (Пакистан) (7 км)
Погода в Касуре (Пакистан) (52 км)
Погода в Амритсаре (Пенджаб, Индия) (52 км)
Погода в Гуджранвале (Пакистан) (70 км)
Погода в Наровале (Пакистан) (80 км)
Погода в Хафизабаде (Пакистан) (87 км)
Погода в Сиялкоте (Пакистан) (107 км)
Погода в Гуджрате (Пакистан) (111 км)
Погода в Сиалкот аэропорту (Пакистан) (113 км)
Погода в Фейсалабаде (Пакистан) (117 км)

Пояснения к столбцам:

Ветер - указаны скорость ветра в м/с - средняя за 10 мин, порывы в срок и между сроками (в фигурных скобках) и направление, откуда дует ветер: С - северный, СВ - северо-восточный, В - восточный, ЮВ - юго-восточный, Ю - южный, ЮЗ - юго-западный, З - западный, СЗ - северо-западный.
Видимость - горизонтальная дальность видимости в метрах или километрах. При видимости от 1 до 10 км при отсутствии осадков обычно наблюдается дымка, при ухудшении видимости до 1 км и менее - туман. В сухую погоду видимость может ухудшаться дымом, пылью или мглою.
Явления - указаны атмосферные явления, наблюдавшиеся в срок или в последний час перед сроком; фигурными скобками обозначены явления, наблюдавшиеся между сроками (за 1-3 часа до срока); квадратными скобками обозначены град или гололедные отложения с указанием их диаметра в мм.
Облачность - указаны через наклонную черту общая и нижняя облачность в баллах и высота нижней границы облаков в метрах; квадратными скобками обозначены формы облаков: Ci - перистые, Cs - перисто-слоистые, Cc - перисто-кучевые, Ac - высококучевые, As - высокослоистые, Sc - слоисто-кучевые, Ns - слоисто-дождевые, Cu - кучевые, Cb - кучево-дождевые. Подробнее классификацию облаков см. в Атласе облаков (PDF).
T - Температура воздуха - температура, измеренная на высоте 2 м над землей.
Td - Температура точки росы - температура, при понижении до которой содержащийся в воздухе водяной пар достигнет насыщения.
f - Относительная влажность воздуха - влажноcть воздуха, измеренная на высоте 2 м над землей.
Te - Эффективная температура - температура, которую ощущает одетый по сезону человек в тени. Характеристика душности погоды. При расчете учитывается влияние влажности воздуха и скорости ветра на теплоощущения человека.
Tes - Эффективная температура на солнце - температура, которую ощущает человек, с поправкой на солнечный нагрев. Характеристика знойности погоды. Зависит от высоты солнца над горизонтом, облачности и скорости ветра. Ночью, в пасмурную погоду, а также при ветре 12 м/с и более поправка равна нулю.
P - Атмосферное давление - приведенное к уровню моря атмосферное давление.
Po - Атмосферное давление - измеренное на уровне метеостанции атмосферное давление.
Tmin - Минимальная температура - минимум температуры воздуха на высоте 2 м над землей.
Tmax - Максимальная температура - максимум температуры воздуха на высоте 2 м над землей.
R - Количество осадков - Количество выпавших осадков за период времени, мм. При наведении курсора мыши на число - период времени, за который выпало указанное количество осадков.
R24 - Количество осадков - Количество выпавших осадков за 24 часа, мм.
S - Снежный покров - Высота снежного покрова, см. При наведении курсора мыши на число - состояние снежного покрова и степень покрытия местности в баллах.